Wind_Speed
6 6 7 9 9 9 8 7 7 9 9 8 7 7 9 7 3 4 6 8 7 7 6 7 6 4 5 5 9 12 14 15 15 15 17 18 17 16 16 16 15 14 14 12 11 14 16 16 12 6 3 10 18 25 28 28 30 33 35 35 35 36 35 36 37 38 38 37 37 38 38 38 38 39 39 39 39 39 39 39 40 40 40 40 40 40 40
6 7 8 9 10 10 10 8 6 6 8 9 7 8 10 8 5 5 3 7 8 6 5 7 6 4 4 5 7 12 14 14 14 16 16 16 16 15 15 15 14 13 12 12 12 14 16 17 16 14 10 7 10 14 21 25 26 27 31 33 32 32 30 28 26 26 29 33 35 36 37 38 39 39 39 38 38 38 39 40 40 40 40 39 40 40 41
5 5 7 9 10 11 13 12 8 5 5 7 7 7 8 6 4 5 5 6 6 6 5 6 7 6 6 8 10 11 12 11 13 15 15 15 15 15 14 14 13 13 13 13 12 14 17 19 19 17 11 4 3 9 14 21 28 29 29 31 32 30 27 25 22 18 20 25 30 34 38 39 39 40 39 38 38 38 39 39 40 39 39 39 39 40 40
4 5 7 10 11 11 13 12 9 5 3 4 6 6 6 6 6 7 5 2 2 6 6 6 8 9 10 12 10 9 10 10 12 14 14 14 15 15 14 13 13 13 13 14 13 14 18 21 21 21 20 13 1 5 9 14 20 30 33 32 32 32 33 34 34 32 30 30 30 33 37 39 39 40 39 39 38 38 38 39 39 39 39 39 40 39 40
3 5 7 8 8 8 8 7 5 6 6 7 7 5 4 5 5 4 2 0 2 4 6 6 9 10 11 11 10 9 9 9 11 12 12 12 13 14 13 12 12 11 10 12 15 17 20 21 21 21 21 20 10 6 10 10 14 18 29 34 33 32 34 37 39 41 43 43 40 38 38 40 40 39 39 39 40 39 39 39 39 39 39 40 40 40 39
2 4 6 7 5 4 4 3 4 7 9 10 9 4 4 6 5 4 3 3 5 6 6 6 6 7 8 9 10 10 9 8 9 11 11 11 12 13 13 13 12 11 11 13 16 19 21 20 21 21 18 17 15 6 12 15 13 16 19 26 32 34 35 39 42 42 42 43 43 41 40 39 39 39 39 40 41 40 38 38 38 39 39 40 40 41 41
1 2 5 4 3 5 3 4 6 6 7 8 6 4 7 9 8 7 7 8 9 8 7 7 4 5 8 9 10 11 10 8 8 9 9 10 12 13 14 15 14 14 17 19 19 20 22 21 19 20 19 17 17 14 9 16 21 19 20 22 25 30 35 37 39 38 38 37 37 37 39 40 39 40 40 41 41 40 38 37 38 39 39 40 40 41 42
0 2 2 2 5 7 9 8 6 4 5 6 5 4 6 9 9 7 7 8 9 9 8 9 7 1 7 8 10 11 10 9 8 8 8 9 11 11 12 14 15 15 17 20 22 21 21 22 21 20 22 24 22 20 15 12 16 23 26 27 26 28 32 34 36 39 39 37 34 34 37 39 40 40 41 41 40 39 38 37 37 38 39 39 40 40 41
1 2 3 3 5 9 9 4 3 4 3 4 3 1 1 5 7 7 6 7 9 11 9 10 11 6 3 5 7 10 11 9 8 8 8 8 9 10 13 15 17 18 16 16 19 22 22 22 21 21 26 29 27 24 19 15 14 20 27 30 29 30 33 35 37 40 39 37 34 33 34 37 40 41 41 41 40 39 38 37 36 37 38 38 39 40 41
1 2 3 3 4 5 3 2 4 6 4 4 4 3 2 3 7 7 7 7 8 10 10 10 11 8 2 1 3 7 9 8 7 7 8 9 9 11 14 16 18 20 20 17 16 19 22 23 23 23 26 27 26 25 21 17 15 15 22 28 30 31 33 36 37 37 36 35 34 34 35 37 39 39 40 40 40 40 39 38 37 37 37 37 38 39 40
1 2 3 3 4 3 1 3 7 8 7 7 5 3 2 3 7 8 7 7 7 8 9 10 8 5 4 2 5 6 7 6 5 5 6 8 11 12 14 17 17 20 22 21 19 18 19 23 28 28 24 22 21 22 21 19 17 15 16 23 29 32 34 36 36 36 36 35 35 35 37 38 38 38 39 39 39 39 39 39 38 37 36 36 37 38 39
2 3 4 3 4 2 1 4 8 9 8 7 5 4 2 2 6 8 7 7 6 6 7 8 5 4 3 4 5 7 8 6 5 4 3 6 11 14 16 18 19 20 22 22 22 21 19 23 28 29 25 21 19 20 21 20 17 16 16 17 21 28 33 34 35 36 36 36 37 37 38 38 38 38 38 38 38 38 39 38 37 36 36 36 36 37 38
4 4 4 4 4 2 1 5 8 8 6 2 2 4 1 2 6 7 5 6 6 5 6 6 4 3 5 5 7 9 8 7 7 6 5 6 10 13 16 18 20 20 21 22 21 21 22 24 25 26 25 23 21 22 22 20 17 17 19 20 21 23 25 29 32 34 36 36 37 38 39 39 38 38 38 38 38 38 37 36 36 36 36 35 35 36 37
2 3 2 4 4 1 1 5 7 5 2 2 3 2 2 4 7 6 4 4 4 5 6 5 5 6 8 8 9 9 9 8 8 8 8 7 9 13 16 18 19 19 20 22 24 25 26 25 24 25 25 23 23 24 23 22 22 22 23 24 24 25 25 25 28 31 33 35 37 38 39 38 37 37 38 38 38 37 36 36 36 36 36 35 34 34 36
1 1 2 3 3 2 2 5 4 2 0 2 3 4 4 5 6 5 4 3 2 4 5 6 7 9 10 10 10 9 9 9 8 10 11 8 8 13 16 18 19 19 19 21 25 29 30 28 26 26 25 24 23 23 24 27 28 27 26 26 25 25 25 25 27 29 31 34 35 36 37 38 39 38 38 37 37 36 35 35 34 35 35 34 33 32 33
1 2 4 3 3 3 1 1 0 2 3 3 3 4 5 5 5 5 5 4 3 3 4 6 7 8 9 11 11 10 10 9 8 10 12 10 10 12 15 18 20 19 18 19 22 26 31 31 28 26 24 24 25 24 26 28 29 28 28 27 25 25 24 24 25 27 30 33 35 36 37 38 38 38 37 37 36 35 35 34 33 32 33 33 32 31 31
3 4 5 5 4 3 2 1 2 5 5 4 3 4 4 4 4 5 5 6 6 5 5 7 7 6 7 9 11 10 10 9 9 11 13 13 12 13 15 19 21 20 19 19 20 22 27 31 29 25 23 23 26 28 29 28 27 29 29 28 26 26 25 25 25 26 28 31 34 36 38 38 38 38 38 36 34 34 34 33 32 31 31 31 31 31 30
3 4 7 8 5 3 3 3 4 5 4 3 4 4 5 5 6 6 6 7 8 7 7 7 7 7 7 8 9 10 10 10 10 12 14 15 15 15 16 19 21 21 20 20 20 20 24 29 29 26 24 23 25 29 31 30 28 28 28 27 27 27 26 27 27 26 27 30 33 36 37 38 39 40 39 37 35 33 32 32 32 31 31 31 31 30 30
2 3 6 6 4 3 4 4 4 4 4 4 5 4 5 7 8 8 8 8 9 8 7 7 8 9 8 8 9 9 9 10 11 11 12 15 16 16 17 19 21 21 19 19 21 21 23 27 28 27 26 24 25 29 31 29 28 28 26 25 25 25 26 28 28 27 27 29 31 33 35 37 38 38 38 38 36 34 33 32 32 31 30 29 29 29 30
4 5 6 4 3 4 4 2 1 3 5 6 7 6 7 8 9 10 10 9 9 7 7 8 9 10 10 8 9 9 8 9 10 10 12 15 16 17 18 20 20 20 19 20 21 22 24 26 27 27 27 26 26 28 29 28 27 27 25 23 23 24 26 27 28 28 27 28 31 32 33 34 35 34 35 36 35 35 36 35 32 30 29 29 30 31 31
4 7 6 3 4 5 4 2 3 4 4 6 8 8 9 10 10 11 11 11 10 9 8 8 9 11 11 8 8 10 9 8 10 12 15 16 17 17 19 20 19 19 19 21 22 24 26 27 26 27 27 27 28 29 28 27 26 25 25 24 22 23 24 25 26 27 26 27 30 31 31 34 36 34 33 34 35 35 37 38 38 36 34 34 35 35 33
5 6 4 1 1 5 5 5 7 7 5 5 8 9 9 10 10 11 12 13 12 12 11 10 9 10 11 9 10 11 10 10 13 16 17 17 18 18 18 19 20 19 19 20 22 25 27 27 26 27 27 27 28 28 27 27 26 25 26 26 23 22 22 22 23 24 24 25 29 31 32 32 28 21 18 23 28 30 31 35 40 41 41 39 38 36 34
6 6 6 5 3 4 6 7 7 7 5 6 8 9 9 9 10 11 11 12 12 11 12 13 11 10 11 12 12 12 12 15 19 21 19 18 18 19 17 16 19 20 20 20 21 25 27 28 27 27 26 27 28 27 27 28 28 27 27 26 24 22 21 22 23 23 22 24 27 27 26 24 21 17 16 21 28 32 33 34 37 39 40 39 37 37 36
5 5 6 6 5 5 7 7 7 7 6 6 8 9 9 9 10 11 11 11 12 11 11 12 14 13 14 15 15 13 14 18 22 23 22 21 21 19 17 14 17 19 20 20 21 24 26 27 28 28 27 27 27 28 30 31 30 28 28 27 25 23 23 23 22 21 20 23 24 21 21 23 25 27 28 29 31 34 34 33 35 38 39 38 37 37 39
5 5 6 6 6 7 7 6 5 8 9 9 8 9 10 11 13 14 12 11 13 14 11 10 13 15 16 18 18 16 15 18 21 22 22 22 20 18 16 14 16 18 19 21 22 24 25 26 27 28 27 27 27 29 33 35 31 29 30 28 25 25 25 22 19 16 13 14 17 23 27 30 33 35 34 31 30 28 25 24 28 33 38 40 40 39 39
6 6 4 3 4 5 4 3 4 7 10 10 8 9 12 15 17 18 15 13 15 16 15 13 14 17 18 19 19 18 18 20 22 22 21 20 18 17 16 15 16 18 20 21 22 23 24 25 26 26 26 26 27 29 33 34 31 29 30 27 24 24 22 20 17 13 8 4 2 7 14 20 27 33 36 37 35 29 23 20 20 24 31 38 43 45 44
6 5 4 2 4 5 5 6 7 8 9 9 8 9 14 17 18 18 17 17 17 18 17 16 16 16 18 18 18 18 19 20 20 20 19 18 19 20 19 16 16 17 19 21 21 22 23 24 25 25 25 26 28 29 32 32 30 29 27 23 20 19 18 16 14 11 8 5 1 3 3 1 5 10 16 23 27 28 29 27 25 26 31 37 41 42 42
5 5 6 6 6 7 7 8 10 9 9 9 10 11 13 14 14 14 13 14 15 16 16 17 17 16 16 16 17 17 17 18 18 18 17 19 21 21 19 16 14 15 17 19 19 19 21 23 24 24 25 27 29 31 32 31 28 25 22 16 13 14 15 14 12 10 9 9 8 7 6 7 8 8 8 12 15 20 24 26 27 29 33 35 35 33 31
6 6 6 7 8 8 6 6 6 6 7 9 10 10 10 10 10 10 10 11 12 14 14 16 17 16 16 17 17 15 14 15 16 17 17 19 21 20 17 15 13 14 14 15 15 17 21 23 23 23 26 29 31 30 31 29 25 21 18 15 11 11 12 12 11 9 8 10 11 13 14 17 21 22 22 23 23 23 23 24 26 29 29 28 28 26 23
6 6 5 6 7 6 6 6 5 5 6 6 6 6 7 8 8 9 10 10 11 12 13 15 16 16 16 17 17 16 16 17 18 18 19 21 22 22 18 14 11 10 9 9 12 17 20 22 22 23 27 30 30 29 29 27 22 18 17 15 12 11 11 11 9 9 11 12 13 15 19 23 25 25 25 26 26 26 25 26 26 26 24 21 20 20 20
5 5 6 6 5 5 5 4 4 5 5 4 4 5 5 7 8 10 10 10 10 11 14 15 16 16 16 17 18 19 19 20 20 20 20 21 23 24 19 13 8 6 5 7 12 16 19 21 21 23 27 29 28 27 26 23 20 18 18 17 15 12 11 10 7 11 15 16 17 20 23 26 27 27 27 27 27 27 27 27 25 22 19 17 17 19 22
3 2 2 3 3 3 3 4 4 4 4 4 4 4 4 6 8 9 9 10 12 13 15 15 15 16 16 18 19 19 20 21 21 19 19 21 22 20 14 7 3 2 3 7 11 15 17 19 21 23 26 27 25 25 23 20 18 18 18 18 16 13 11 9 5 11 18 20 22 25 27 28 27 28 29 29 28 28 27 25 23 21 19 19 22 24 25
4 2 2 2 2 3 4 4 4 4 5 4 3 3 5 6 8 9 10 13 15 15 14 14 16 17 18 17 17 18 19 19 16 16 18 18 14 8 5 3 3 3 4 6 11 14 16 17 20 23 25 24 23 23 21 18 17 19 19 18 17 15 13 10 5 7 15 20 24 26 28 28 28 28 30 30 28 27 25 24 23 23 23 24 26 29 30
6 5 5 5 4 3 4 4 4 4 4 3 3 4 6 8 9 11 13 15 15 14 16 18 19 20 19 17 17 18 16 13 10 11 13 10 6 7 6 5 6 6 5 9 14 16 17 18 20 23 23 21 21 21 19 17 17 19 19 19 19 18 16 14 11 5 5 12 19 23 25 25 25 26 28 29 27 26 26 26 25 25 25 26 28 30 30
7 6 7 7 6 5 5 4 3 4 3 3 3 4 6 9 12 13 14 16 17 18 21 22 22 22 21 18 17 16 14 13 11 9 6 8 10 10 8 9 10 8 8 12 17 19 19 20 21 21 20 18 19 19 18 17 16 18 20 21 21 20 19 18 16 13 8 2 6 11 14 18 21 23 25 28 29 30 29 28 27 27 26 25 24 23 22
7 5 5 6 5 5 4 4 4 4 4 4 4 5 7 10 13 14 16 18 20 22 24 24 23 22 18 12 10 12 13 13 11 9 11 12 12 12 13 13 12 10 9 12 18 21 21 21 20 19 17 17 18 19 18 16 16 18 20 21 22 22 21 21 20 18 15 11 8 6 3 4 8 14 19 24 27 28 26 25 24 23 22 21 21 21 20
7 6 7 7 5 4 4 4 5 5 5 6 5 5 7 10 13 15 17 19 21 23 24 23 21 18 13 9 5 2 4 8 13 14 15 14 14 16 16 14 13 11 9 11 17 20 21 20 19 18 17 17 16 17 17 16 16 19 21 22 22 21 21 22 22 21 19 18 18 16 15 14 11 11 15 19 21 22 23 23 22 21 20 20 21 23 23
6 7 8 7 5 4 3 4 5 3 4 6 6 5 7 10 13 16 17 18 21 22 22 22 22 19 14 13 13 15 16 15 15 15 15 15 15 15 14 13 14 12 10 11 16 19 20 19 18 17 18 18 16 15 16 16 17 21 23 24 23 22 21 22 23 22 21 21 21 22 22 21 18 15 17 20 20 20 22 24 24 23 22 22 22 24 27
6 6 5 5 5 5 4 4 5 3 2 5 6 5 6 9 12 15 16 17 20 21 21 21 21 18 15 14 15 16 19 19 16 15 16 15 14 14 15 16 16 14 12 14 17 19 19 19 18 17 18 18 16 15 15 16 18 22 24 24 24 24 23 23 23 23 23 23 23 24 25 25 22 20 19 22 24 24 26 28 29 28 27 26 26 28 31
6 6 4 3 5 5 4 5 5 3 1 3 4 3 4 8 11 13 14 16 19 20 21 20 18 15 14 14 14 15 19 21 19 16 14 12 11 12 13 15 17 18 17 17 18 19 19 18 18 18 18 18 17 17 16 17 19 23 25 26 25 25 24 25 25 25 24 24 25 25 25 25 24 23 21 22 26 27 28 31 34 36 34 33 31 31 32
7 7 6 6 5 5 5 5 4 1 1 3 3 3 3 6 10 12 13 15 17 19 20 19 16 15 16 15 14 15 18 19 18 16 13 12 11 10 10 11 15 18 18 18 19 20 19 19 19 19 18 19 18 18 19 20 21 23 25 27 26 25 24 26 27 26 24 24 25 26 25 25 25 24 22 22 25 28 28 29 32 35 37 36 34 33 33
9 9 8 6 5 5 6 5 3 1 2 4 3 4 3 3 8 10 13 14 16 17 18 18 17 17 18 17 15 15 14 13 13 16 17 17 15 12 9 11 15 16 16 18 21 21 19 20 20 19 18 19 19 19 22 24 24 23 25 26 26 25 25 25 25 24 23 24 25 26 27 26 25 25 25 24 25 28 30 29 30 32 34 35 35 34 33
10 9 8 6 5 5 5 4 3 2 0 3 3 4 4 1 5 8 11 13 14 15 17 17 16 16 17 17 16 16 14 13 13 15 18 21 22 20 16 15 17 16 15 17 21 21 20 20 20 19 18 19 20 22 25 26 26 26 26 26 26 26 25 24 23 23 23 24 25 26 27 27 26 25 26 26 26 28 31 31 30 31 32 34 35 35 35
12 11 9 8 5 5 6 6 5 5 3 2 2 4 5 2 5 6 9 12 14 15 16 16 15 16 17 16 16 16 16 17 17 16 14 15 18 20 19 18 18 18 16 17 19 20 20 20 19 19 20 21 23 25 27 27 27 28 28 27 27 27 26 25 24 24 23 23 24 25 26 27 27 27 27 27 27 28 30 31 30 30 31 32 34 35 35
13 12 10 8 6 5 5 6 5 4 3 4 3 5 6 4 4 6 8 10 13 15 16 16 17 17 17 17 17 18 20 21 21 19 15 11 10 14 16 17 18 19 18 18 19 20 20 19 19 20 22 24 25 28 28 28 27 28 28 27 27 27 27 26 26 24 23 24 25 25 26 27 28 28 29 29 29 29 29 30 31 32 32 32 33 34 35
14 13 11 9 7 5 3 4 3 1 5 6 4 5 7 5 4 6 8 11 13 15 17 18 19 19 18 18 17 18 21 23 25 24 21 17 15 16 17 16 18 20 20 20 20 20 19 18 19 21 23 26 28 29 30 29 28 28 28 28 27 27 27 28 27 26 26 26 27 27 28 28 28 28 30 32 32 31 32 32 33 33 34 34 35 36 37
14 13 11 9 6 4 1 2 4 6 5 2 2 6 8 8 6 7 9 11 14 16 17 18 18 19 20 20 19 18 18 20 22 25 25 23 21 20 19 18 18 20 22 23 23 22 20 19 19 20 22 25 29 30 30 30 30 29 29 28 27 27 27 28 28 28 29 29 29 29 30 30 29 29 30 32 32 33 33 34 33 33 34 35 36 37 37
15 13 12 10 7 5 6 7 8 6 3 4 5 8 10 9 8 8 9 11 13 15 16 18 19 19 21 22 22 22 21 18 17 20 23 23 22 21 21 21 21 21 22 23 23 23 22 21 21 21 22 25 27 28 29 29 30 30 30 29 28 28 27 27 27 28 29 30 30 30 30 30 29 29 30 31 31 31 33 34 33 32 32 34 35 36 36
18 15 13 11 8 7 7 8 8 6 5 7 11 13 12 10 9 8 8 10 12 13 15 17 19 19 21 22 22 23 24 23 20 20 22 24 24 23 22 22 22 23 23 23 22 22 22 22 22 23 25 26 27 27 28 28 29 31 31 31 30 29 29 28 28 28 29 30 31 32 31 30 29 29 30 31 31 31 32 33 33 33 33 33 34 35 35
17 15 13 12 10 8 8 8 7 7 9 12 14 13 12 11 10 8 8 10 11 11 12 14 16 17 19 21 21 21 22 23 22 22 23 25 25 25 24 24 23 23 23 23 22 22 22 23 23 24 26 27 28 28 28 28 29 31 32 32 31 30 30 30 30 30 29 30 31 32 32 30 29 29 30 30 30 30 31 32 32 33 33 33 33 33 33
17 15 13 12 11 9 8 7 6 9 13 16 15 13 13 13 10 8 8 9 10 10 10 11 13 14 16 18 19 19 19 20 20 21 22 24 25 26 26 25 25 24 25 25 24 24 24 25 25 26 27 28 28 28 28 29 29 30 32 32 32 31 31 31 31 30 30 30 30 30 31 31 31 31 31 31 30 31 31 31 31 32 33 33 33 33 34
18 15 12 11 10 10 9 8 8 12 17 17 14 13 14 14 12 10 9 9 10 10 10 11 12 13 14 15 16 17 18 19 19 19 19 20 21 23 25 25 25 25 25 26 26 26 26 26 27 28 29 29 29 29 29 30 30 30 30 31 31 31 31 31 31 30 30 30 30 29 29 30 31 32 32 32 32 33 33 32 33 33 33 33 33 33 33
Wind_Direction
325 332 327 322 319 312 312 322 324 320 324 336 339 316 305 310 295 250 289 336 333 303 326 7 27 72 93 66 34 30 30 29 28 26 26 29 32 32 34 33 29 27 28 28 25 19 22 31 36 31 295 249 227 212 204 200 196 195 195 196 198 199 201 205 208 210 212 213 215 216 218 219 221 222 223 222 222 223 223 222 222 221 221 222 222 222 224
328 331 321 321 328 326 324 327 331 329 322 320 317 304 300 298 266 249 322 347 322 306 342 10 29 63 92 91 64 45 36 26 25 29 25 23 25 26 27 29 26 22 18 19 21 20 20 23 29 40 45 360 296 250 216 200 196 195 193 193 196 198 199 203 209 214 215 216 216 216 217 219 220 221 223 223 223 223 224 224 223 222 222 222 222 222 223
322 327 332 333 336 331 320 316 322 336 317 307 309 308 313 326 316 307 338 349 323 317 345 22 35 34 43 58 58 55 48 31 29 36 27 16 17 18 20 21 18 16 14 12 14 14 14 11 8 13 23 25 298 278 251 214 197 194 193 191 192 192 193 195 201 213 225 228 225 220 218 219 220 220 221 222 223 223 224 224 224 223 222 221 222 222 223
312 334 349 337 333 330 318 309 311 321 331 344 339 327 337 354 333 316 328 356 322 319 337 27 46 35 37 43 39 48 55 39 35 40 31 17 11 10 16 15 8 9 10 7 3 4 4 1 357 358 356 349 307 204 268 264 219 197 192 190 189 189 192 196 199 203 210 221 228 227 222 220 220 221 220 221 222 223 223 224 224 223 222 222 222 222 223
302 336 349 340 343 339 309 289 309 339 355 360 343 324 338 352 338 333 358 190 256 310 342 26 44 42 44 45 36 35 43 41 38 37 33 24 9 3 10 10 5 6 4 359 356 356 358 354 348 351 352 345 335 191 201 268 266 220 196 190 190 192 196 200 203 204 206 209 213 218 221 220 219 220 220 220 221 222 223 223 223 223 222 222 222 222 222
282 325 357 355 343 310 271 279 351 354 345 333 322 326 12 13 6 4 3 348 341 351 3 19 45 61 60 57 54 45 35 32 33 30 29 24 11 2 1 1 2 0 353 355 358 355 351 347 344 348 352 344 331 287 197 203 236 252 233 208 197 196 200 204 207 209 210 209 206 208 214 217 217 217 218 220 220 221 222 222 222 223 222 222 222 222 223
225 353 25 2 278 248 271 334 343 343 340 329 329 29 36 20 14 9 3 359 354 354 356 357 25 103 97 78 67 55 43 34 27 23 23 20 14 6 357 354 357 356 350 349 352 352 346 341 344 350 353 345 331 313 258 210 207 223 246 241 217 203 204 208 210 212 215 216 211 206 207 211 214 215 217 218 219 220 221 221 222 223 223 222 222 222 223
163 75 103 219 254 283 305 323 335 351 2 358 11 47 32 11 4 0 357 353 348 347 353 353 347 153 140 106 71 52 44 39 30 21 17 19 18 9 356 349 345 348 350 345 340 340 339 339 346 352 349 343 334 320 303 267 225 215 224 235 230 216 211 212 214 215 217 218 216 211 208 208 211 213 215 217 218 218 219 221 222 223 223 223 223 223 223
178 172 213 248 309 310 308 325 19 14 2 351 338 307 6 7 358 348 345 348 347 346 348 351 344 324 191 129 66 43 38 38 34 20 10 17 19 5 353 345 337 336 341 340 336 336 336 338 345 349 345 341 333 322 316 306 273 238 226 228 229 223 217 216 218 219 219 218 216 215 212 209 210 212 214 216 217 216 217 219 221 222 222 223 223 223 223
168 197 245 283 296 282 280 333 347 343 327 298 272 228 204 359 350 343 341 343 343 342 344 349 346 345 16 66 9 20 26 31 35 20 4 10 16 6 351 342 336 334 336 337 338 339 338 337 340 344 342 338 329 319 316 317 305 269 238 230 229 226 222 221 222 223 223 221 218 216 215 213 212 212 213 214 215 215 215 217 220 221 222 223 223 223 223
134 183 227 238 242 236 237 325 324 328 318 307 298 240 196 346 338 333 335 340 342 340 340 346 352 14 33 334 319 349 2 13 30 24 359 353 358 2 353 342 336 335 334 336 341 346 344 338 336 339 338 331 322 315 314 315 312 298 264 241 234 231 229 228 227 226 225 223 220 218 217 216 215 213 213 214 215 215 215 216 219 221 221 222 223 223 224
216 228 240 243 251 263 330 328 322 317 312 321 317 267 216 4 329 316 320 333 340 340 338 344 1 22 3 305 307 330 336 346 5 10 13 359 350 351 349 342 336 335 336 339 342 344 343 336 333 334 333 326 317 313 314 310 304 301 295 279 261 248 241 235 231 229 226 223 220 218 218 217 216 215 215 215 214 214 214 215 217 220 221 221 223 223 224
226 235 246 261 267 268 305 312 313 312 311 316 257 248 252 340 305 300 314 326 336 350 347 343 344 338 321 309 313 320 322 334 342 338 350 358 349 347 345 339 336 335 336 338 337 334 335 334 331 330 328 323 318 315 312 306 299 300 303 302 297 284 264 248 237 230 226 223 220 218 217 217 216 216 216 215 214 214 213 214 215 218 220 221 222 224 224
232 221 232 275 277 232 262 295 302 313 301 227 228 268 309 297 290 300 319 326 342 357 344 329 319 317 317 317 317 318 320 325 324 324 333 344 346 346 342 338 338 336 335 336 334 331 333 333 330 327 324 317 314 314 308 301 302 307 306 303 301 298 289 271 252 238 229 225 222 219 217 215 214 216 216 216 216 214 213 213 214 216 218 220 221 223 224
221 218 237 272 267 235 317 325 328 343 224 227 288 320 309 292 297 308 310 311 339 343 328 316 313 314 315 315 313 311 314 315 315 319 324 329 339 342 339 337 337 336 335 336 334 330 331 331 329 326 319 311 309 307 302 302 308 311 308 305 300 296 292 284 270 255 240 230 224 221 218 214 213 214 215 215 215 214 212 212 213 215 217 218 220 222 223
142 197 229 234 215 218 261 4 266 269 271 275 310 316 307 307 311 310 309 305 298 299 299 299 302 304 305 307 308 308 309 312 316 319 318 321 330 334 335 336 334 333 333 333 331 328 328 328 328 325 319 311 306 301 300 307 314 312 307 304 300 294 291 287 281 270 255 239 229 223 219 215 213 213 213 214 213 213 211 211 211 214 216 216 218 220 221
193 204 229 244 240 241 249 205 237 267 273 279 299 302 297 300 301 303 309 308 304 299 289 287 293 294 295 301 306 309 311 312 317 317 313 313 319 325 329 330 330 330 328 326 325 326 327 327 326 323 321 314 304 301 306 313 314 309 305 302 296 292 291 289 286 280 267 250 235 225 219 215 212 211 211 211 211 211 210 209 210 213 214 215 216 219 221
260 254 254 260 268 290 297 288 286 284 277 291 320 316 299 296 298 298 298 300 305 305 296 292 293 292 294 303 305 307 310 310 312 314 310 307 310 318 324 325 325 326 325 323 322 324 326 327 325 323 324 319 308 306 312 315 312 306 301 296 291 290 291 291 289 285 273 255 238 227 220 214 211 210 208 207 208 208 207 208 210 212 213 214 216 219 221
268 275 259 241 220 248 273 280 298 314 318 322 325 314 301 301 301 297 295 297 301 300 297 297 297 296 300 305 303 304 307 306 306 307 304 302 304 309 314 318 320 321 321 322 324 324 324 325 325 324 324 322 316 314 315 316 314 307 297 289 287 289 291 292 292 287 273 255 238 226 218 213 211 209 207 206 206 205 205 206 209 211 213 214 215 218 221
219 251 261 253 239 255 253 233 285 324 321 314 311 308 302 299 297 295 295 296 295 298 300 297 295 297 300 301 302 303 302 300 302 301 298 296 297 301 307 313 318 318 318 321 325 324 320 321 323 325 326 323 321 320 320 319 319 314 303 293 289 291 293 293 292 287 273 252 235 223 215 212 209 208 206 205 205 206 206 206 207 209 211 214 216 218 221
251 270 276 301 315 295 280 257 279 291 292 294 302 305 301 299 298 298 298 298 294 293 295 294 294 295 296 300 304 303 301 300 297 296 297 296 292 293 300 307 311 313 314 319 322 320 316 317 321 325 326 324 323 324 324 322 321 318 312 305 299 296 295 293 292 288 273 250 232 219 212 210 209 207 205 204 205 209 211 210 210 210 211 213 216 218 219
260 259 240 190 261 280 282 282 282 283 284 290 296 297 295 296 297 296 298 299 296 290 286 286 289 292 294 300 303 298 296 297 295 294 296 297 291 286 290 301 306 306 309 316 320 317 314 314 318 324 326 325 325 325 325 324 322 317 313 310 305 300 297 295 295 289 272 248 229 218 212 208 202 195 192 198 203 208 212 214 215 215 215 216 217 218 219
232 221 200 179 188 238 260 265 269 273 278 287 289 287 284 285 288 291 293 294 295 295 289 284 285 287 290 295 297 294 290 290 292 293 294 294 290 283 282 293 301 303 309 318 319 316 314 313 316 322 324 324 326 327 326 325 322 316 312 309 304 300 298 299 302 297 274 247 230 219 209 193 173 159 166 189 202 209 212 213 214 216 219 221 221 220 221
228 215 196 185 191 229 249 254 263 273 277 277 279 280 280 281 283 286 287 287 288 290 287 282 280 281 284 288 288 285 285 288 290 293 294 294 288 279 274 284 293 296 305 316 317 314 312 310 313 319 321 322 326 327 328 329 326 317 312 309 301 297 297 299 305 305 279 247 226 206 185 172 170 176 182 190 200 207 210 211 212 214 217 220 222 223 224
212 217 195 186 206 231 243 250 262 270 271 271 275 282 284 287 289 289 288 288 287 286 286 283 279 276 278 282 282 280 282 285 289 292 294 293 286 272 267 279 290 294 302 311 314 313 309 308 312 318 318 320 325 328 330 332 329 318 312 306 296 291 295 295 298 303 288 247 213 191 180 178 181 184 186 191 199 203 203 206 211 213 214 216 218 222 224
212 217 194 187 224 237 247 273 275 265 260 259 265 278 283 288 293 295 292 290 287 286 283 280 278 278 277 278 279 281 281 283 288 292 293 291 280 265 261 276 290 296 302 309 312 311 310 310 314 316 315 319 327 330 330 331 329 319 311 301 289 286 288 289 290 290 286 280 212 186 187 189 189 188 191 197 200 197 192 194 201 208 212 214 218 220 221
215 207 180 196 264 258 241 242 246 246 248 250 258 275 283 288 293 293 291 291 291 289 285 281 280 281 279 277 278 281 280 281 286 290 291 289 278 262 260 275 288 293 301 308 311 311 311 313 314 314 315 322 330 333 332 331 328 322 312 298 286 284 283 281 284 278 259 245 284 59 69 195 215 204 205 208 204 197 194 193 195 202 208 212 217 220 220
214 203 183 197 232 238 233 237 240 240 242 248 257 271 284 292 295 293 291 293 296 293 290 287 282 278 277 277 277 277 278 280 282 282 286 292 285 269 262 271 281 289 298 306 308 312 314 314 314 314 319 328 336 337 335 333 331 328 322 309 296 292 285 275 273 271 256 242 234 213 189 197 211 214 221 231 228 219 211 205 201 205 209 212 214 219 223
221 217 205 212 224 231 246 264 261 247 242 246 253 268 284 294 298 297 292 291 294 294 292 287 281 275 274 274 272 271 272 274 275 276 283 293 291 277 266 269 280 288 295 301 310 317 317 315 315 318 325 334 341 340 337 337 336 332 330 327 317 307 299 287 275 258 235 224 228 230 222 215 213 209 206 211 219 225 224 218 211 211 214 215 214 215 220
226 213 203 217 231 238 254 270 264 248 244 244 248 264 281 290 296 299 295 293 293 292 290 287 283 279 276 274 271 269 268 269 271 274 279 286 288 280 269 268 281 290 294 307 323 326 321 317 319 323 330 338 343 341 340 342 339 332 331 331 323 313 308 302 281 241 211 200 207 220 223 221 218 213 208 207 209 213 217 220 218 216 218 218 213 208 209
214 208 195 203 219 232 246 265 267 250 239 237 248 265 283 297 301 300 299 298 295 290 287 288 286 281 277 274 272 270 268 267 269 272 273 277 281 278 268 260 271 288 311 339 338 331 324 322 324 329 335 340 343 344 345 347 343 338 338 338 331 322 316 309 273 221 205 199 202 210 214 215 211 206 203 203 203 204 209 214 216 216 214 209 205 206 207
201 239 225 210 227 257 275 287 291 272 251 247 259 274 290 301 302 302 304 301 295 290 287 286 284 280 275 271 270 269 267 264 263 265 269 272 273 268 257 244 257 307 352 355 345 337 331 327 327 334 339 342 345 349 351 352 351 349 347 344 341 337 332 325 282 221 210 210 210 210 209 208 206 201 199 201 203 203 205 207 208 208 204 198 199 204 203
171 231 279 264 264 292 297 289 279 267 257 252 255 270 287 294 295 297 299 297 295 295 293 290 287 282 273 265 263 263 260 259 258 259 261 261 254 233 193 153 96 69 41 5 354 349 342 335 335 340 343 345 350 354 356 359 1 360 356 353 352 352 350 348 327 239 220 218 219 217 211 207 204 201 200 202 203 201 199 199 199 200 198 195 199 203 202
168 193 213 210 207 225 246 253 259 261 257 259 263 271 287 298 300 300 301 301 303 304 302 297 293 286 274 263 258 255 251 248 248 247 241 225 169 123 109 94 84 79 52 19 7 358 350 348 346 345 346 350 355 358 4 10 11 9 7 5 4 4 4 4 2 343 250 225 224 225 220 213 208 205 202 200 196 194 193 193 193 193 193 194 197 199 196
182 195 200 197 200 213 212 209 227 245 245 256 270 271 285 299 305 309 311 311 310 308 307 307 304 298 286 267 249 239 238 237 232 218 180 130 105 92 83 74 67 62 44 24 12 1 356 357 354 348 349 357 2 4 10 19 22 20 18 16 14 15 16 16 15 13 8 321 229 227 223 217 213 209 202 194 189 188 188 187 187 188 188 187 186 184 180
180 173 178 188 204 226 224 203 200 215 225 234 248 267 290 302 309 314 315 314 315 316 318 319 313 306 301 285 241 221 223 223 205 157 115 101 89 75 68 61 51 45 39 22 10 3 1 0 357 354 358 6 10 9 12 23 33 34 30 25 21 20 22 24 25 23 24 32 44 54 84 152 181 189 189 186 184 181 178 175 176 178 177 171 165 157 150
184 172 179 192 199 209 217 198 181 200 228 232 234 264 294 303 312 317 318 319 322 324 325 326 321 317 327 351 16 64 119 138 135 116 98 91 83 72 63 53 43 42 36 14 6 6 4 2 3 6 10 15 19 16 12 23 43 48 41 33 28 24 25 30 31 28 30 37 45 50 58 67 84 115 140 152 158 158 156 155 156 155 152 149 146 138 129
170 165 178 192 185 172 176 164 156 178 236 234 227 260 295 303 313 321 323 326 331 332 332 337 337 336 348 12 29 37 48 70 97 102 90 80 75 70 63 52 42 37 27 14 13 13 11 9 14 17 15 19 29 27 16 22 47 59 52 42 34 29 29 33 35 33 34 40 48 53 55 55 56 72 97 112 120 126 130 131 130 125 121 119 117 114 110
143 145 164 179 164 146 137 140 145 150 251 243 233 255 292 303 312 320 325 333 340 342 342 345 347 349 2 22 33 35 36 44 61 79 82 80 76 72 67 57 46 37 30 26 26 23 18 18 22 23 19 24 36 39 28 28 47 61 60 51 42 35 34 37 40 38 37 40 47 53 56 55 52 55 71 86 92 95 99 102 100 95 91 91 93 96 98
156 158 156 150 143 129 116 130 147 151 296 268 242 247 290 306 312 320 328 339 349 352 351 352 355 3 14 23 30 37 40 41 45 58 72 79 78 74 68 56 45 39 35 34 33 30 27 27 28 26 24 29 38 44 44 44 51 61 64 58 48 40 37 40 44 43 41 43 47 50 54 57 57 56 64 79 87 90 92 95 96 94 91 89 88 89 92
169 165 150 135 123 103 97 120 153 178 341 327 282 245 272 314 320 323 331 343 354 359 359 1 9 18 20 20 28 41 47 46 45 52 60 63 61 61 58 49 44 41 39 39 39 37 34 35 35 31 31 35 39 45 54 57 57 59 63 62 55 45 39 40 44 45 45 48 51 53 55 57 58 57 58 67 79 85 87 90 94 97 98 97 95 94 95
173 167 152 134 120 110 115 133 168 215 15 3 314 244 232 334 339 334 339 351 2 7 8 12 23 30 28 24 27 36 44 47 51 55 57 54 51 50 48 43 44 45 44 44 43 39 35 36 37 36 38 43 46 50 58 62 60 58 61 63 59 51 43 40 41 46 50 54 58 60 61 61 61 61 60 61 69 77 82 84 87 91 95 98 99 99 98
165 159 149 139 136 141 148 161 199 214 37 360 311 237 209 3 359 350 352 0 11 18 17 18 24 31 31 30 31 31 30 30 38 50 56 55 53 51 49 46 45 48 49 48 45 41 37 36 38 40 45 49 53 57 60 61 60 59 60 61 61 59 53 45 41 44 51 56 59 63 65 66 65 65 65 65 67 73 79 82 84 88 92 96 98 99 99
155 154 156 159 163 173 185 203 229 234 230 290 275 209 179 109 31 8 1 7 19 28 27 24 26 29 30 32 35 34 28 25 28 36 48 55 53 49 48 48 48 49 51 51 49 46 42 40 42 50 57 59 61 63 63 61 59 59 60 60 62 63 61 54 48 46 48 54 60 64 68 70 70 69 70 69 70 73 78 82 84 87 90 93 95 97 97
153 156 161 166 168 175 195 227 259 254 196 181 184 174 158 123 58 30 20 22 29 34 33 31 33 36 35 35 40 44 42 38 36 35 38 42 43 41 44 48 50 51 52 53 52 50 47 45 47 56 65 69 69 68 66 63 61 60 59 59 61 64 65 63 59 53 49 52 58 64 68 70 72 74 75 75 74 75 77 81 84 86 88 89 90 92 93
158 161 162 163 163 170 218 270 297 123 145 156 149 135 137 132 88 49 38 36 38 41 41 41 43 45 45 43 44 46 47 45 43 41 41 44 45 43 45 51 55 55 55 55 53 51 49 49 52 58 65 69 70 70 68 66 65 63 62 60 60 63 65 67 67 63 58 55 57 62 67 70 72 75 79 81 81 81 81 82 83 85 87 89 89 90 92
154 157 157 158 157 148 95 27 73 101 116 120 103 121 136 137 108 72 58 51 49 50 52 52 50 49 49 47 44 43 44 45 44 42 43 47 50 50 49 52 57 58 58 57 54 52 52 53 54 58 63 67 69 70 69 68 67 66 65 63 61 61 64 66 68 70 69 65 62 62 65 68 70 72 76 80 82 84 85 84 84 85 88 91 92 92 93
152 154 153 147 133 107 80 67 71 75 52 33 76 115 139 143 121 89 70 61 58 57 58 59 56 53 53 53 52 49 50 50 48 43 42 45 49 51 49 51 55 58 59 58 55 53 53 54 55 57 62 67 69 69 69 69 69 68 66 64 62 61 63 65 67 70 73 72 69 65 63 63 65 69 72 74 77 82 85 86 86 87 88 90 92 93 94
156 156 152 141 127 110 89 71 58 43 37 63 90 112 128 131 117 97 81 72 66 62 63 65 63 60 60 61 60 57 57 58 58 53 48 47 49 51 51 52 54 56 58 59 57 55 55 56 57 59 62 67 69 69 70 70 70 70 69 68 65 64 63 65 67 69 72 74 74 72 69 66 66 67 70 72 75 78 81 84 87 89 91 92 93 95 97
153 149 145 141 138 128 108 89 68 55 67 85 98 106 107 101 91 85 85 84 78 71 68 68 68 67 68 69 68 66 63 62 61 58 55 53 54 54 53 53 54 55 57 60 60 59 58 59 60 61 64 66 68 69 70 70 70 70 71 71 69 68 67 67 68 68 69 71 74 76 76 75 73 72 72 73 75 76 79 82 86 89 91 92 93 94 96
142 141 143 146 146 135 119 105 85 77 88 97 100 97 95 95 94 92 94 93 86 78 72 68 66 67 71 74 73 71 67 64 62 61 61 60 60 59 58 57 58 59 60 62 63 63 63 63 63 64 66 67 68 69 70 71 71 71 72 72 72 71 70 70 70 69 69 70 71 74 76 79 80 79 77 77 77 78 79 80 82 84 85 87 89 91 93
137 141 148 153 152 147 136 118 97 95 100 104 102 99 101 104 102 97 98 102 96 85 77 71 69 69 71 74 75 73 70 67 65 64 64 64 64 64 63 62 62 63 64 64 65 66 66 66 66 66 67 68 69 70 70 71 71 71 71 72 73 73 73 73 73 73 73 73 73 73 74 76 79 80 80 80 81 81 81 82 83 84 86 88 91 93 95
Height
823 821 820 816 815 814 812 813 813 808 804 804 806 807 803 801 807 806 795 793 794 783 772 770 770 768 769 772 770 763 758 758 758 757 754 751 750 748 748 749 749 748 747 746 745 745 743 741 741 741 743 745 746 745 746 748 750 752 756 760 763 767 771 774 776 779 783 786 788 790 793 795 797 799 801 802 804 806 807 808 809 810 812 813 814 815 817
826 822 819 816 815 814 812 812 813 810 806 803 802 801 797 795 798 795 791 793 790 780 773 771 768 768 768 769 768 764 762 764 764 762 761 760 758 755 754 754 754 753 751 749 747 746 745 745 744 743 743 746 748 749 748 748 750 752 754 757 761 765 769 773 778 781 784 785 786 788 789 791 793 795 797 800 801 803 804 805 807 808 809 811 812 813 814
830 824 820 818 817 816 813 810 810 809 807 802 799 799 796 796 798 793 790 794 792 779 772 771 771 771 769 768 769 768 769 772 771 768 768 767 765 762 758 757 757 755 753 751 750 748 747 747 747 747 745 745 746 749 751 750 748 749 751 754 757 762 766 769 774 780 785 787 787 786 786 787 788 790 793 796 797 799 800 802 804 805 807 808 808 810 811
836 827 825 824 819 816 815 810 806 806 805 805 804 802 800 802 803 796 793 798 796 785 777 775 776 776 775 776 776 774 773 776 776 774 774 773 772 768 763 762 760 758 755 753 752 750 749 749 748 749 749 747 744 745 751 754 751 747 748 750 753 756 758 761 763 767 772 777 781 783 782 783 784 786 788 791 793 795 796 798 800 802 803 804 805 807 808
840 832 829 827 825 825 821 810 804 803 804 806 807 803 800 801 801 799 798 798 793 786 783 782 782 782 782 783 784 783 781 779 778 777 777 778 777 773 770 768 765 762 760 758 755 752 750 751 750 749 750 751 748 744 746 753 756 753 749 748 751 754 755 757 758 757 756 757 763 770 775 777 779 782 784 786 787 789 791 794 797 798 800 801 802 804 805
843 835 829 831 838 837 822 805 801 804 805 806 806 805 804 802 800 799 798 795 791 788 787 788 788 787 786 785 786 786 784 782 781 780 778 779 778 775 772 769 766 763 759 758 757 754 752 753 753 751 751 753 753 749 745 747 753 758 756 752 750 750 752 753 754 755 754 752 752 757 764 771 774 776 779 780 782 784 787 790 792 794 796 797 798 800 801
841 835 836 845 845 830 812 803 802 803 803 803 805 808 809 807 803 800 798 796 795 792 790 789 788 787 786 786 785 785 785 785 785 783 781 780 778 775 773 769 767 764 759 755 754 754 754 755 754 752 751 752 753 752 749 746 746 751 756 756 753 750 749 750 752 754 756 755 755 755 758 764 768 771 773 774 777 780 783 785 788 789 791 793 794 796 797
839 840 845 846 834 815 806 806 805 804 804 806 809 812 814 813 809 805 804 801 797 793 791 789 787 786 786 786 786 787 787 787 786 785 784 780 777 777 776 774 771 768 765 760 756 755 754 754 753 752 751 749 750 750 749 747 744 744 746 750 752 750 748 749 750 750 751 753 754 755 756 758 761 765 767 769 772 776 778 781 783 785 787 789 791 793 794
839 843 843 837 828 819 813 811 812 814 815 816 817 818 817 815 812 808 806 804 799 795 792 789 787 783 781 785 789 789 788 788 787 786 784 781 779 779 779 778 775 771 769 766 761 757 754 752 752 753 750 746 746 747 747 744 743 741 740 741 744 746 746 745 746 746 746 747 750 753 754 754 755 758 762 765 768 771 774 776 778 780 783 785 787 789 790
837 841 842 840 839 831 821 818 819 818 817 816 816 817 816 815 812 809 808 805 802 798 794 792 789 784 784 789 792 791 790 790 788 787 785 783 783 782 781 781 778 773 769 766 763 759 755 752 751 752 751 747 745 746 746 743 740 739 738 738 739 741 741 741 742 743 744 745 746 748 750 751 752 754 757 760 763 766 768 770 773 775 778 781 783 785 786
839 842 844 843 839 828 821 823 821 816 815 812 810 815 818 816 812 809 807 806 803 800 797 793 791 792 796 799 796 791 790 790 789 788 787 785 784 783 783 782 780 775 770 764 761 759 756 753 751 750 751 751 748 746 744 742 739 737 736 736 737 737 737 737 738 740 740 741 742 743 745 746 748 751 753 756 759 761 763 765 768 771 774 777 779 780 782
843 842 843 840 831 822 822 824 820 815 813 810 813 820 820 815 814 810 807 805 803 801 799 796 795 798 802 801 795 790 789 789 788 788 787 786 784 782 782 781 779 776 771 764 760 758 757 755 752 750 750 749 748 745 741 739 738 735 735 735 734 733 733 733 733 734 735 736 737 738 740 742 745 747 750 752 755 757 759 761 764 767 770 772 774 776 778
845 843 844 839 828 821 823 823 818 814 811 812 819 822 817 814 815 810 805 805 804 802 801 800 799 798 797 795 792 789 787 787 786 786 785 785 783 781 780 778 776 774 769 764 760 758 757 755 752 749 748 746 743 741 738 736 735 734 733 731 730 730 729 729 729 729 729 731 731 732 734 738 741 744 746 748 750 752 755 757 760 762 765 767 770 772 774
844 843 843 839 829 822 822 821 815 812 813 815 818 817 814 815 813 808 806 806 804 803 803 801 799 796 793 791 789 787 786 785 783 782 782 781 780 779 777 775 774 772 768 762 758 756 754 754 752 748 746 743 741 738 735 732 732 732 730 729 727 726 725 725 724 724 724 725 727 728 730 733 737 739 741 744 746 748 751 753 755 758 760 763 765 768 770
842 844 844 840 831 823 820 819 817 815 816 817 817 816 815 813 809 807 807 806 805 805 804 801 799 796 792 790 788 786 784 782 780 779 778 778 777 775 774 773 772 771 768 764 759 754 752 751 750 747 744 741 739 736 733 730 730 729 728 726 725 724 722 721 720 720 720 721 722 724 726 728 731 733 736 740 742 744 747 749 752 754 756 759 762 764 765
842 845 840 831 824 821 819 820 820 819 817 816 815 816 815 811 809 809 807 806 806 805 803 801 799 796 793 790 786 784 782 779 777 776 774 774 774 772 771 771 769 769 768 766 762 757 752 750 749 747 743 739 736 734 731 730 729 727 725 724 723 721 720 719 718 717 717 717 718 720 722 724 726 728 731 735 737 740 743 745 748 750 752 755 758 759 761
836 834 827 820 818 819 819 819 819 817 816 814 814 815 814 812 810 808 806 805 804 803 802 799 797 794 792 789 785 782 779 777 775 774 772 771 771 770 769 768 767 766 766 765 763 759 754 751 749 746 743 739 735 730 728 729 728 725 722 721 719 718 717 716 715 714 713 713 714 715 717 719 721 723 726 730 732 736 739 741 744 746 748 751 753 755 757
829 825 819 817 819 819 818 818 817 816 815 814 814 813 813 811 808 807 805 804 802 800 799 796 793 792 790 788 785 782 778 775 774 772 771 769 768 767 766 765 764 762 762 762 761 758 755 752 749 745 742 739 734 729 727 727 726 723 720 718 716 714 713 712 711 711 710 709 709 710 712 714 715 717 720 724 727 731 734 737 739 741 744 747 749 751 753
830 824 817 815 818 819 819 818 817 815 815 814 813 813 812 809 807 804 802 801 799 798 796 794 791 789 786 785 784 782 779 776 773 771 770 768 766 765 764 763 762 760 760 758 755 752 752 751 747 743 739 736 733 729 726 724 723 720 717 715 713 711 709 708 707 706 705 705 705 705 707 709 711 713 715 718 722 725 728 731 734 737 740 743 745 747 748
828 821 815 815 818 818 817 816 816 816 815 814 812 811 809 807 805 802 800 798 797 795 793 792 789 786 784 783 782 780 778 776 773 771 769 767 765 764 762 761 760 759 757 754 751 749 748 747 744 740 736 732 730 727 724 722 720 716 714 712 710 708 706 705 703 701 700 699 700 701 702 704 706 709 711 714 717 719 722 725 729 733 736 739 740 742 744
825 820 815 816 817 815 814 814 814 814 814 813 811 809 807 805 803 800 798 796 795 793 792 790 787 785 782 781 780 778 777 775 772 771 769 767 765 763 761 760 759 758 756 753 750 748 747 745 742 738 733 730 728 725 722 720 717 714 711 709 707 705 703 701 699 696 694 694 695 696 697 699 702 705 708 710 713 716 718 721 724 727 730 732 734 736 739
823 817 814 816 817 816 814 813 812 812 812 811 810 808 807 805 802 800 797 795 793 791 790 788 786 783 781 779 778 777 774 772 771 769 768 767 765 763 761 760 758 757 756 753 750 748 745 743 741 736 732 729 727 724 721 718 715 712 709 706 703 701 700 698 695 692 690 689 690 691 692 695 699 704 706 709 712 714 717 718 720 722 724 725 728 731 734
813 810 811 814 815 815 813 811 811 810 810 809 808 807 805 804 801 799 796 794 791 790 788 786 785 782 779 777 777 774 771 769 768 766 765 765 763 761 761 759 756 755 753 751 749 746 743 741 739 734 730 728 726 723 720 717 714 711 708 704 700 698 696 695 692 689 687 685 686 688 689 692 696 700 704 707 709 710 711 713 715 718 720 722 725 727 729
806 806 808 810 811 810 809 808 809 808 807 807 806 804 802 801 799 797 795 793 790 788 786 784 782 780 777 776 774 772 769 766 764 762 761 761 760 759 758 756 754 752 750 748 746 744 742 740 737 732 728 726 724 721 718 715 712 709 706 703 699 695 693 692 689 686 683 682 683 685 687 689 692 695 698 700 701 702 705 707 710 713 715 718 721 723 723
802 802 804 805 806 806 806 806 807 806 805 805 804 802 800 798 796 794 792 790 788 786 783 781 779 778 775 773 771 770 767 764 762 760 758 756 756 755 753 753 752 750 747 745 743 742 740 739 736 731 727 724 722 719 716 712 709 706 703 701 697 694 691 690 687 685 683 682 682 683 683 684 686 689 692 694 695 698 702 705 707 709 710 712 714 716 717
799 799 801 803 804 804 805 806 805 803 802 802 801 800 798 796 793 791 789 787 785 783 781 778 776 775 773 770 769 767 764 761 759 757 755 753 752 751 750 749 748 747 745 743 741 740 739 737 734 730 726 724 721 717 713 710 706 703 700 697 695 693 690 688 686 685 684 685 685 685 685 686 686 686 687 689 691 695 699 702 705 706 707 707 708 708 709
798 799 801 804 804 803 803 803 802 800 799 799 799 798 796 794 792 789 787 784 782 780 778 776 774 772 770 768 766 765 762 759 757 755 753 751 749 748 748 747 746 745 743 741 739 739 737 736 733 728 725 722 718 714 711 707 704 700 697 694 693 691 689 687 686 685 684 686 687 687 689 692 694 694 694 693 692 693 694 696 699 701 701 702 703 703 704
796 797 799 801 801 800 799 798 798 797 797 797 797 796 794 792 790 788 785 782 780 777 775 773 772 770 768 765 764 762 760 758 755 753 751 749 747 746 746 745 745 744 742 740 739 738 737 735 732 727 722 718 714 710 707 704 700 698 695 693 691 689 687 685 684 683 683 684 686 687 688 690 693 695 698 700 701 700 698 696 696 697 697 697 699 701 703
794 794 795 796 795 795 796 796 796 796 795 795 795 794 793 791 789 787 783 780 778 775 773 771 769 767 765 763 761 759 757 755 753 750 748 747 746 744 744 744 744 743 741 739 738 737 736 734 730 725 720 715 711 707 704 701 698 697 695 692 690 688 686 684 682 681 681 681 683 686 688 689 689 689 691 694 698 702 703 701 697 696 696 697 698 699 701
791 792 793 793 794 795 795 795 794 794 793 793 793 793 792 790 788 785 782 779 776 774 771 769 767 764 762 760 758 756 754 752 750 748 746 745 743 743 743 742 742 741 740 738 737 736 735 732 727 722 718 713 709 706 703 699 697 696 694 691 688 686 684 683 681 679 678 678 679 681 683 686 687 687 688 689 692 696 700 700 697 696 696 698 698 698 699
789 790 791 791 792 793 793 793 792 792 791 791 792 791 790 789 787 784 780 777 774 771 769 766 764 761 759 756 754 752 751 749 747 745 744 742 742 741 741 740 739 738 738 737 736 735 733 729 724 720 716 712 709 706 703 700 697 695 692 689 686 684 682 681 679 678 676 674 674 673 674 678 680 682 684 686 687 689 692 694 695 695 695 696 697 697 697
788 789 790 791 791 791 791 791 791 791 790 790 790 790 789 788 786 783 779 776 773 769 766 763 760 757 755 752 751 749 747 745 744 742 741 740 739 738 738 737 737 736 736 736 736 735 732 728 722 718 716 713 710 706 703 701 698 694 691 687 684 682 681 679 678 677 675 673 671 668 667 670 673 675 678 680 680 681 684 688 691 692 692 692 693 693 692
788 789 790 790 790 790 790 790 790 790 789 788 788 788 787 786 784 781 778 774 770 766 763 759 756 753 750 748 746 744 742 741 740 739 738 737 736 735 735 734 734 734 734 735 734 733 731 726 721 717 716 713 710 707 704 700 697 693 690 687 684 682 680 678 677 675 674 672 669 666 665 665 667 670 671 673 675 677 680 684 687 688 687 687 687 687 687
786 787 788 788 788 789 789 789 789 788 787 787 787 786 785 784 782 779 776 772 767 763 759 755 751 747 744 742 740 738 737 736 735 734 734 733 733 733 732 732 732 732 733 733 732 730 728 724 720 717 715 712 710 706 703 699 696 692 689 687 685 682 680 678 676 674 673 671 668 665 664 664 666 667 668 669 671 674 676 678 681 683 683 683 683 684 685
783 784 785 785 786 786 786 787 787 786 786 786 786 784 783 782 780 777 773 769 765 760 756 751 747 742 737 734 732 732 732 731 730 730 730 731 731 731 731 730 730 730 731 731 730 728 726 722 719 717 714 711 709 705 701 698 695 692 689 687 685 683 680 678 676 674 672 670 667 665 664 663 664 666 667 668 669 671 672 674 676 678 679 681 682 685 687
782 783 783 784 784 784 785 785 785 785 784 784 784 783 782 781 778 775 772 768 763 759 754 748 743 738 732 727 725 725 726 726 727 728 729 729 730 730 729 729 729 729 730 730 728 727 724 721 718 716 714 711 708 705 702 698 695 691 689 688 686 684 682 680 677 675 673 671 668 666 664 663 663 664 665 666 667 668 670 673 676 678 680 682 684 686 688
781 781 782 782 782 783 784 784 784 784 783 783 783 782 781 779 777 774 771 767 763 758 753 747 742 736 731 728 725 723 722 723 725 727 728 729 729 729 729 729 729 729 729 729 728 726 724 720 718 716 714 711 708 706 704 700 695 690 689 689 688 688 686 682 679 677 676 673 671 669 666 664 664 664 663 664 666 668 670 673 675 678 680 683 685 687 688
780 780 781 781 781 782 783 783 783 783 783 782 782 781 780 779 776 774 770 766 762 758 753 748 743 738 734 731 728 725 724 724 726 728 729 729 729 729 728 729 729 729 730 729 728 726 723 721 718 717 715 712 709 707 706 702 696 691 690 691 692 691 689 686 682 680 679 676 674 672 670 668 668 667 666 666 667 668 670 671 673 676 679 682 685 687 689
779 780 780 781 781 781 782 782 783 783 782 782 781 781 780 778 776 773 770 766 763 759 754 750 745 741 737 734 732 730 729 728 728 729 730 732 732 731 729 730 730 731 730 729 727 725 723 722 720 719 717 714 711 708 706 703 698 693 692 694 694 694 692 689 686 684 682 680 677 676 674 674 673 673 672 671 671 672 673 674 675 678 682 685 689 691 691
779 779 780 780 780 781 781 782 782 782 782 781 780 780 780 778 776 773 770 767 763 760 756 752 748 744 741 739 737 735 734 733 733 733 734 735 734 732 730 730 731 731 730 728 726 725 725 724 722 720 718 715 712 709 707 704 701 697 695 695 696 697 696 693 690 688 687 685 682 681 680 679 679 679 678 676 675 675 677 677 677 681 685 690 694 696 697
778 779 779 780 780 780 781 781 782 781 781 780 780 780 779 778 776 773 771 767 764 761 758 754 751 748 746 744 742 740 739 739 739 738 737 736 735 733 732 732 732 732 731 729 727 727 727 725 724 722 719 716 713 711 707 705 703 700 698 697 698 699 699 697 694 693 692 691 688 687 686 685 685 684 684 681 679 679 681 681 681 682 686 691 696 701 704
777 778 779 779 780 780 781 781 781 781 781 780 779 779 779 778 776 774 771 768 766 763 760 757 754 752 750 749 746 745 744 744 744 742 739 737 736 735 735 735 735 735 733 731 729 728 728 727 725 723 721 718 715 712 708 705 704 703 701 699 699 701 702 703 701 700 699 697 694 692 691 691 691 691 690 689 686 684 685 687 688 688 690 694 699 705 710
777 778 778 779 780 780 780 780 780 780 780 780 779 778 778 778 776 774 772 770 767 764 762 760 758 756 754 752 750 748 747 746 745 742 741 740 739 739 739 739 738 737 735 733 731 730 730 728 726 724 722 719 717 714 710 708 707 706 705 703 702 703 706 708 708 707 705 702 699 698 697 697 697 697 697 696 695 692 692 694 696 697 698 701 704 708 712
776 777 778 779 779 779 780 780 779 780 780 780 779 778 778 778 777 775 773 771 768 766 764 762 760 759 757 755 753 751 750 748 746 744 743 742 742 743 743 742 741 739 737 735 734 733 733 731 729 726 723 721 718 716 713 711 711 709 708 708 707 707 708 711 713 713 712 709 706 704 703 702 703 703 703 703 702 701 700 701 703 705 706 708 710 712 714
776 777 778 778 779 779 779 779 778 779 779 779 779 778 778 778 777 776 774 772 770 768 766 765 763 761 760 758 756 754 753 751 749 748 747 746 746 746 746 745 743 741 739 737 736 736 736 735 732 729 726 723 721 718 716 715 715 714 713 713 713 712 712 714 716 718 718 716 713 711 709 708 708 708 708 708 708 709 709 709 710 711 712 713 714 715 716
775 776 777 778 778 778 779 778 778 778 779 779 779 779 779 779 778 777 775 774 772 770 769 767 766 764 762 761 759 758 756 754 753 752 751 750 749 749 749 747 745 743 742 739 738 739 739 738 736 733 730 727 724 722 720 720 719 719 719 719 719 719 719 719 720 721 722 722 720 717 715 715 715 715 714 714 714 715 716 716 717 717 718 719 719 720 721
775 776 776 777 778 778 778 778 778 778 778 778 779 779 779 779 779 777 776 775 774 772 771 770 768 766 765 763 762 760 759 758 756 755 755 754 753 752 751 750 747 745 743 742 742 742 743 741 739 737 734 731 728 727 726 725 724 724 724 725 725 726 725 725 725 725 725 726 726 724 723 721 722 722 721 720 720 721 721 722 723 724 725 725 726 727 729
774 775 776 777 778 778 778 778 778 778 778 778 779 779 780 780 779 778 778 777 776 775 774 773 771 769 768 767 765 764 763 761 759 759 758 757 756 755 754 752 750 747 746 745 746 746 746 745 743 740 738 735 733 732 731 731 730 729 729 730 731 731 731 731 731 730 730 730 730 730 730 729 729 728 727 727 727 727 727 727 729 732 733 733 733 733 735
773 774 776 777 777 778 778 778 778 778 778 779 779 780 780 780 780 779 779 778 777 777 776 775 773 772 771 770 769 768 766 764 763 763 762 760 758 757 756 755 753 750 749 749 750 750 749 748 746 743 741 739 738 737 737 736 735 734 734 734 736 737 737 736 736 736 735 734 734 734 735 737 737 736 735 735 735 735 735 735 735 738 739 739 739 739 740
773 774 775 776 777 778 778 778 779 779 779 779 780 781 781 780 781 781 780 780 779 778 777 776 776 775 774 773 772 771 770 768 767 766 765 764 762 760 759 758 756 755 754 754 754 754 753 751 749 747 746 744 742 742 741 741 740 739 739 739 740 741 741 741 741 740 740 740 740 740 740 742 743 744 743 743 743 743 743 743 743 743 744 745 745 745 746
772 773 775 776 777 778 778 779 779 780 780 780 781 781 781 781 781 782 782 781 780 779 779 778 777 777 776 775 774 774 773 772 770 769 769 767 766 765 763 762 761 761 760 759 758 757 756 755 754 752 751 749 747 747 746 746 745 745 745 745 745 746 746 746 746 746 746 747 747 747 747 748 748 749 749 750 750 750 750 750 750 750 750 751 751 752 752
772 773 775 776 777 778 779 780 780 780 781 781 782 782 781 781 782 783 783 782 782 781 781 780 779 779 779 778 777 777 776 775 774 773 772 771 771 770 769 768 767 766 765 764 763 762 761 760 758 757 755 754 753 752 752 751 751 751 751 751 750 751 751 752 752 752 753 753 753 754 754 754 754 754 754 755 755 755 756 756 756 756 757 757 758 758 759